Date String (YYYY-MM-DD hh:mm:ss) UTC,Instrument flags,Ambient pressure (hPa),Sample flow (lpm),Bypass flow (lpm),Sample temperature (°C),Ambient temperature (°C),ASC tube jacket temperature (°C),LED temperature (°C),Box temperature (°C),Sample RH (%),Span deviation,Mass concentration (μg/m³),Mass concentration (μg/m³),Mass concentration (μg/m³)
DateTimeUTC,F1_M11,P_M11,Q1_M11,Q2_M11,T1_M11,T2_M11,T3_M11,T4_M11,T5_M11,U1_M11,ZSPAN_M11,X0_M11,X2_M11,X1_M11
2022-10-29 01:00:00,,0830.1,5.00,0.00,29.6,27.9,00.0,38.5,31.3,10.4,0000.0,0006.62,0003.64,0003.30
2022-10-29 01:01:00,,0830.1,4.98,0.00,29.6,27.9,00.0,38.5,31.3,10.5,0000.0,0006.30,0003.65,0003.30
2022-10-29 01:02:00,,0830.1,5.02,0.00,29.6,27.9,00.0,38.5,31.3,10.5,0000.0,0007.33,0003.64,0003.29
2022-10-29 01:03:00,,0830.1,4.99,0.00,29.6,27.8,00.0,38.5,31.3,10.5,0000.0,0007.35,0003.64,0003.31
2022-10-29 01:04:00,,0830.1,4.99,0.00,29.6,27.8,00.0,38.5,31.3,10.6,0000.0,0007.44,0003.66,0003.32
2022-10-29 01:05:00,,0830.1,5.02,0.00,29.6,27.8,00.0,38.5,31.3,10.6,0000.0,0007.33,0003.67,0003.33
2022-10-29 01:06:00,,0830.1,5.00,0.00,29.5,27.8,00.0,38.5,31.2,10.6,0000.0,0007.36,0003.68,0003.35
2022-10-29 01:07:00,,0830.1,4.99,0.00,29.5,27.8,00.0,38.5,31.2,10.7,0000.0,0007.37,0003.67,0003.36
2022-10-29 01:08:00,,0830.1,5.01,0.00,29.5,27.8,00.0,38.4,31.2,10.7,0000.0,0007.31,0003.66,0003.38
2022-10-29 01:09:00,,0830.2,4.99,0.00,29.5,27.7,00.0,38.4,31.2,10.7,0000.0,0007.29,0003.66,0003.39
2022-10-29 01:10:00,,0830.2,4.98,0.00,29.5,27.7,00.0,38.4,31.2,10.7,0000.0,0007.61,0003.68,0003.41
2022-10-29 01:11:00,,0830.1,5.02,0.00,29.5,27.7,00.0,38.4,31.2,10.7,0000.0,0007.93,0003.70,0003.43
2022-10-29 01:12:00,,0830.1,4.99,0.00,29.5,27.7,00.0,38.4,31.2,10.8,0000.0,0007.89,0003.69,0003.45
2022-10-29 01:13:00,,0830.2,4.99,0.00,29.5,27.7,00.0,38.4,31.2,10.8,0000.0,0007.73,0003.72,0003.48
2022-10-29 01:14:00,,0830.2,5.01,0.00,29.5,27.7,00.0,38.4,31.1,10.8,0000.0,0007.98,0003.77,0003.51
2022-10-29 01:15:00,,0830.1,4.99,0.00,29.4,27.7,00.0,38.4,31.1,10.8,0000.0,0007.94,0003.79,0003.52
2022-10-29 01:16:00,,0830.2,5.01,0.00,29.4,27.7,00.0,38.4,31.1,10.9,0000.0,0008.06,0003.82,0003.54
2022-10-29 01:17:00,,0830.1,4.99,0.00,29.4,27.6,00.0,38.4,31.1,10.9,0000.0,0008.11,0003.84,0003.56
2022-10-29 01:18:00,,0830.1,5.02,0.00,29.4,27.6,00.0,38.4,31.1,10.9,0000.0,0008.56,0003.88,0003.57
2022-10-29 01:19:00,,0830.1,4.99,0.00,29.4,27.6,00.0,38.3,31.1,10.8,0000.0,0009.35,0003.90,0003.58
2022-10-29 01:20:00,,0830.1,5.00,0.00,29.4,27.6,00.0,38.3,31.1,10.9,0000.0,0009.39,0003.93,0003.59
2022-10-29 01:21:00,,0830.1,5.01,0.00,29.4,27.6,00.0,38.3,31.1,10.9,0000.0,0009.46,0003.97,0003.61
2022-10-29 01:22:00,,0830.1,4.99,0.00,29.4,27.6,00.0,38.3,31.0,10.9,0000.0,0010.41,0004.00,0003.62
2022-10-29 01:23:00,,0830.2,5.02,0.00,29.3,27.6,00.0,38.3,31.0,10.9,0000.0,0011.06,0004.01,0003.63
2022-10-29 01:24:00,,0830.1,4.99,0.00,29.3,27.5,00.0,38.3,31.0,11.0,0000.0,0010.98,0004.01,0003.62
2022-10-29 01:25:00,,0830.1,4.99,0.00,29.3,27.5,00.0,38.3,31.0,11.1,0000.0,0010.95,0003.98,0003.62
2022-10-29 01:26:00,,0830.1,5.02,0.00,29.3,27.5,00.0,38.2,30.9,11.1,0000.0,0010.94,0003.96,0003.61
2022-10-29 01:27:00,,0830.1,4.99,0.00,29.3,27.5,00.0,38.2,30.9,11.1,0000.0,0011.08,0003.95,0003.60
2022-10-29 01:28:00,,0830.1,5.01,0.00,29.3,27.5,00.0,38.2,31.0,11.2,0000.0,0011.25,0003.95,0003.60
2022-10-29 01:29:00,,0830.1,4.99,0.00,29.2,27.5,00.0,38.2,30.9,11.2,0000.0,0010.84,0003.94,0003.60
2022-10-29 01:30:00,,0830.1,4.99,0.00,29.2,27.4,00.0,38.2,30.8,11.3,0000.0,0010.04,0003.94,0003.60
2022-10-29 01:31:00,,0830.1,5.01,0.00,29.2,27.4,00.0,38.2,30.8,11.3,0000.0,0010.01,0003.93,0003.60
2022-10-29 01:32:00,,0830.1,4.99,0.00,29.2,27.4,00.0,38.2,30.9,11.3,0000.0,0009.54,0003.91,0003.61
2022-10-29 01:33:00,,0830.1,5.02,0.00,29.2,27.4,00.0,38.2,30.9,11.3,0000.0,0008.57,0003.91,0003.61
2022-10-29 01:34:00,,0830.1,4.99,0.00,29.2,27.4,00.0,38.2,30.9,11.3,0000.0,0008.05,0003.94,0003.62
2022-10-29 01:35:00,,0830.1,4.99,0.00,29.2,27.4,00.0,38.1,30.9,11.3,0000.0,0007.61,0003.96,0003.62
2022-10-29 01:36:00,,0830.1,5.02,0.00,29.2,27.4,00.0,38.1,30.9,11.3,0000.0,0007.63,0003.98,0003.62
2022-10-29 01:37:00,,0830.1,4.99,0.00,29.1,27.3,00.0,38.1,30.8,11.3,0000.0,0007.60,0003.98,0003.62
2022-10-29 01:38:00,,0830.2,5.00,0.00,29.1,27.3,00.0,38.1,30.8,11.4,0000.0,0007.22,0003.96,0003.61
2022-10-29 01:39:00,,0830.1,5.01,0.00,29.1,27.3,00.0,38.1,30.8,11.4,0000.0,0007.05,0003.95,0003.61
2022-10-29 01:40:00,,0830.2,4.99,0.00,29.1,27.3,00.0,38.1,30.8,11.4,0000.0,0007.67,0003.96,0003.60
2022-10-29 01:41:00,,0830.2,4.99,0.00,29.1,27.3,00.0,38.0,30.8,11.4,0000.0,0007.86,0003.97,0003.60
2022-10-29 01:42:00,,0830.1,5.01,0.00,29.1,27.3,00.0,38.0,30.8,11.4,0000.0,0007.89,0003.96,0003.59
2022-10-29 01:43:00,,0830.1,4.99,0.00,29.1,27.3,00.0,38.0,30.8,11.4,0000.0,0007.86,0003.96,0003.58
2022-10-29 01:44:00,,0830.1,5.01,0.00,29.0,27.3,00.0,38.0,30.8,11.4,0000.0,0007.70,0003.94,0003.57
2022-10-29 01:45:00,,0830.1,4.99,0.00,29.0,27.2,00.0,38.0,30.7,11.4,0000.0,0007.65,0003.91,0003.56
2022-10-29 01:46:00,,0830.1,4.99,0.00,29.0,27.2,00.0,38.0,30.7,11.4,0000.0,0007.62,0003.89,0003.55
2022-10-29 01:47:00,,0830.1,5.01,0.00,29.0,27.2,00.0,38.0,30.7,11.4,0000.0,0007.52,0003.86,0003.54
2022-10-29 01:48:00,,0830.1,4.99,0.00,29.0,27.2,00.0,38.0,30.7,11.4,0000.0,0007.51,0003.85,0003.54
2022-10-29 01:49:00,,0830.1,5.00,0.00,29.0,27.2,00.0,37.9,30.7,11.4,0000.0,0007.56,0003.85,0003.54
2022-10-29 01:50:00,,0830.1,5.01,0.00,29.0,27.2,00.0,37.9,30.7,11.4,0000.0,0007.41,0003.83,0003.53
2022-10-29 01:51:00,,0830.1,5.00,0.00,29.0,27.2,00.0,37.9,30.7,11.3,0000.0,0006.59,0003.82,0003.52
2022-10-29 01:52:00,,0830.1,4.99,0.00,28.9,27.2,00.0,37.9,30.7,11.2,0000.0,0006.21,0003.79,0003.52
2022-10-29 01:53:00,,0830.1,5.01,0.00,28.9,27.2,00.0,37.9,30.7,11.1,0000.0,0006.20,0003.80,0003.53
2022-10-29 01:54:00,,0830.1,4.99,0.00,28.9,27.2,00.0,37.9,30.6,11.1,0000.0,0006.19,0003.80,0003.54
2022-10-29 01:55:00,,0830.1,4.99,0.00,28.9,27.1,00.0,37.9,30.6,11.1,0000.0,0006.31,0003.79,0003.53
2022-10-29 01:56:00,,0830.1,5.00,0.00,28.9,27.1,00.0,37.9,30.6,11.1,0000.0,0006.28,0003.78,0003.53
2022-10-29 01:57:00,,0830.1,5.01,0.00,28.9,27.1,00.0,37.8,30.6,11.1,0000.0,0006.99,0003.78,0003.54
2022-10-29 01:58:00,,0830.1,4.99,0.00,28.9,27.1,00.0,37.8,30.6,11.0,0000.0,0007.55,0003.76,0003.53
2022-10-29 01:59:00,,0830.1,4.99,0.00,28.9,27.1,00.0,37.8,30.6,10.9,0000.0,0008.11,0003.76,0003.53
